Regional Weather Roundup
Issued by NWS

Home | Current Version | Previous Version | Text Only | Print | Product List | Glossary On
Versions: 1 2 3 4 5 6 7 8 9 10 11 12 13 14 15 16 17 18 19 20 21 22 23 24 25 26 27 28 29 30 31 32 33 34 35 36 37 38 39 40 41 42 43 44 45 46 47 48 49 50
000
ASUS43 KLMK 241902
RWRKY
KENTUCKY REGIONAL WEATHER ROUNDUP
NATIONAL WEATHER SERVICE LOUISVILLE KY
300 PM EDT SUN JUL 24 2016

NOTE "FAIR" INDICATES FEW OR NO CLOUDS BELOW 12,000 FEET
WITH NO SIGNIFICANT WEATHER AND/OR OBSTRUCTIONS TO VISIBILITY.

KYZ001>023-026-027-061>063-070>075-242000-
WESTERN AND SOUTH CENTRAL KENTUCKY

CITY           SKY/WX    TMP DP  RH WIND       PRES   REMARKS
PADUCAH        PTSUNNY   91  75  59 SW7       29.97F HX 101
HENDERSON      MOSUNNY   93  77  59 SW6       29.97F HX 107
OWENSBORO      PTSUNNY   91  79  68 SW7       29.99F HX 107
HOPKINSVILLE   MOSUNNY   89  75  63 SW7       30.00F HX 100
BOWLING GREEN  MOSUNNY   91  74  57 W7        30.01F HX 100
GLASGOW        NOT AVBL
$$

KYZ024-025-028>034-038-045-046-053-242000-
NORTH CENTRAL KENTUCKY

CITY           SKY/WX    TMP DP  RH WIND       PRES   REMARKS
LOUISVILLE/SDF PTSUNNY   93  73  52 SW12      29.99F HX 102
LOUISVILLE/LOU PTSUNNY   93  74  53 SW10      29.99F HX 103
FORT KNOX      PTSUNNY   89  75  63 SW7       30.00F HX  99
$$

KYZ035>037-039>044-047>052-055>060-089>105-242000-
NORTHEAST KENTUCKY

CITY           SKY/WX    TMP DP  RH WIND       PRES   REMARKS
LEXINGTON      PTSUNNY   93  72  50 SW10      30.03F HX 101
COVINGTON      MOSUNNY   93  74  53 W10       30.01F HX 103
FRANKFORT      MOSUNNY   93  75  55 SW8       30.01F HX 104
$$

KYZ054-064>069-076>088-106>120-242000-
SOUTHEAST KENTUCKY

CITY           SKY/WX    TMP DP  RH WIND       PRES   REMARKS
JACKSON        CLOUDY    90  73  57 CALM      30.06F HX  98
LONDON         PTSUNNY   89  68  49 SW6       30.06F HX  93
SOMERSET       MOSUNNY   88  70  55 W9        30.05F HX  92
MIDDLESBORO    SUNNY     91  72  53 S6        30.06F HX  98
MONTICELLO     PTCLDY   N/A N/A N/A W12       30.06F
$$





USA.gov is the U.S. government's official web portal to all federal, state and local government web resources and services.